This is the latest recevied weather packets stored in our database for station/object KC4LZN. If no packets are shown the sender has not sent any weather packets the latest 10 day(s).
| Time | Temp. | Humidity | Pressure | Rain* | Wind** | Luminosity | Snow |
|---|---|---|---|---|---|---|---|
| 1777807457 | 16.67° C | 95% | 1017.4 hPa | 0 mm | - | 29 W/m² | - |
| 1777807157 | 16.67° C | 95% | 1017.4 hPa | 0 mm | - | 32 W/m² | - |
| 1777806855 | 16.67° C | 96% | 1017.5 hPa | 0 mm | - | 25 W/m² | - |
| 1777806551 | 16.67° C | 96% | 1017.6 hPa | 0 mm | - | 15 W/m² | - |
| 1777806247 | 16.67° C | 96% | 1017.7 hPa | 0 mm | - | 13 W/m² | - |
| 1777805944 | 16.67° C | 96% | 1017.6 hPa | 0 mm | - | 10 W/m² | - |
| 1777805640 | 16.67° C | 95% | 1017.4 hPa | 0 mm | - | 7 W/m² | - |
| 1777805338 | 16.67° C | 95% | 1017.1 hPa | 0 mm | - | 4 W/m² | - |
| 1777805036 | 16.67° C | 95% | 1017.2 hPa | 0 mm | - | 2 W/m² | - |
| 1777804733 | 16.67° C | 95% | 1017.1 hPa | 0 mm | - | 1 W/m² | - |
| 1777804431 | 16.67° C | 95% | 1016.9 hPa | 0 mm | - | 1 W/m² | - |
| 1777804128 | 16.67° C | 95% | 1017 hPa | 0 mm | - | 0 W/m² | - |
| 1777803824 | 16.67° C | 95% | 1017.1 hPa | 0 mm | - | 0 W/m² | - |
| 1777803520 | 16.67° C | 94% | 1017 hPa | 0 mm | - | 0 W/m² | - |
| 1777803218 | 16.67° C | 94% | 1017 hPa | 0 mm | - | 0 W/m² | - |
| 1777802915 | 16.67° C | 94% | 1016.9 hPa | 0 mm | - | 0 W/m² | - |
| 1777802613 | 16.67° C | 94% | 1016.9 hPa | 0 mm | - | 0 W/m² | - |
| 1777802310 | 17.22° C | 94% | 1016.6 hPa | 0 mm | - | 0 W/m² | - |
| 1777802008 | 17.22° C | 93% | 1016.5 hPa | 0 mm | - | 0 W/m² | - |
| 1777801706 | 17.22° C | 93% | 1016.5 hPa | 0 mm | - | 0 W/m² | - |
| 1777801403 | 17.22° C | 93% | 1016.8 hPa | 0 mm | - | 0 W/m² | - |
| 1777801099 | 17.22° C | 93% | 1016.5 hPa | 0 mm | - | 0 W/m² | - |
| 1777800796 | 17.22° C | 93% | 1016.7 hPa | 0 mm | - | 0 W/m² | - |
| 1777800491 | 17.22° C | 93% | 1016.8 hPa | 0 mm | - | 0 W/m² | - |
| 1777800188 | 17.22° C | 93% | 1016.5 hPa | 0 mm | - | 0 W/m² | - |
* Rain latest hour (hover to see other rain measurements)
** Current wind speed in m/s (hover to see current wind gust speed)